| time (UTC) | temp F | wind direction | speed knots | gust knots | rain 1hr in | rain 24hr in | rain mn in | humidity % | barometer mb |
| 20260505125032 | 40 | 277 | 0.0 | 2.6 | 0.00 | 0.00 | 0.00 | 65 | 1005.8 |
| 20260505124032 | 40 | 277 | 0.0 | 0.0 | 0.00 | 0.00 | 0.00 | 64 | 1005.8 |
| 20260505123532 | 41 | 278 | 0.0 | 0.0 | 0.00 | 0.00 | 0.00 | 66 | 1005.6 |
| 20260505122133 | 41 | 278 | 0.0 | 0.0 | 0.00 | 0.00 | 0.00 | 64 | 1005.9 |
| 20260505122031 | 41 | 278 | 0.0 | 0.0 | 0.00 | 0.00 | 0.00 | 64 | 1005.9 |
| 20260505121530 | 41 | 277 | 0.0 | 0.0 | 0.00 | 0.00 | 0.00 | 64 | 1005.9 |
| 20260505121030 | 41 | 278 | 0.0 | 0.0 | 0.00 | 0.00 | 0.00 | 64 | 1005.8 |
| 20260505120530 | 41 | 278 | 0.0 | 0.0 | 0.00 | 0.00 | 0.00 | 64 | 1005.8 |
| 20260505120109 | 42 | 278 | 0.9 | 0.0 | 0.00 | 0.00 | 0.00 | 64 | 1005.5 |
| 20260505120030 | 42 | 278 | 0.9 | 0.0 | 0.00 | 0.00 | 0.00 | 64 | 1005.5 |
| 20260505115529 | 42 | 278 | 0.9 | 1.7 | 0.00 | 0.00 | 0.00 | 63 | 1005.5 |
| 20260505115029 | 42 | 277 | 1.7 | 2.6 | 0.00 | 0.00 | 0.00 | 63 | 1005.6 |
| 20260505114528 | 42 | 277 | 1.7 | 5.2 | 0.00 | 0.00 | 0.00 | 62 | 1005.6 |
| 20260505113028 | 43 | 277 | 0.9 | 3.5 | 0.00 | 0.00 | 0.00 | 60 | 1005.8 |
| 20260505110526 | 44 | 279 | 4.3 | 7.0 | 0.00 | 0.00 | 0.00 | 58 | 1005.9 |
| 20260505102024 | 44 | 234 | 0.9 | 3.5 | 0.00 | 0.00 | 0.00 | 56 | 1005.9 |
| 20260505101523 | 45 | 234 | 1.7 | 4.3 | 0.00 | 0.00 | 0.00 | 56 | 1005.9 |
| 20260505101023 | 45 | 234 | 1.7 | 4.3 | 0.00 | 0.00 | 0.00 | 56 | 1005.7 |
| 20260505095022 | 45 | 233 | 0.9 | 3.5 | 0.00 | 0.00 | 0.00 | 55 | 1005.6 |
| 20260505094522 | 46 | 233 | 1.7 | 4.3 | 0.00 | 0.00 | 0.00 | 55 | 1005.8 |
| 20260505094022 | 46 | 232 | 1.7 | 6.1 | 0.00 | 0.00 | 0.00 | 55 | 1005.9 |
| 20260505093021 | 46 | 231 | 0.9 | 4.3 | 0.00 | 0.00 | 0.00 | 53 | 1005.9 |
| 20260505091520 | 46 | 231 | 0.9 | 1.7 | 0.00 | 0.00 | 0.00 | 51 | 1005.4 |
| 20260505091149 | 46 | 231 | 0.9 | 4.3 | 0.00 | 0.00 | 0.00 | 51 | 1005.5 |
| 20260505091020 | 46 | 231 | 0.9 | 4.3 | 0.00 | 0.00 | 0.00 | 51 | 1005.5 |
| 20260505090519 | 46 | 230 | 0.9 | 2.6 | 0.00 | 0.00 | 0.00 | 51 | 1005.6 |
| 20260505090020 | 46 | 230 | 1.7 | 3.5 | 0.00 | 0.00 | 0.00 | 51 | 1005.5 |
| 20260505085519 | 46 | 230 | 1.7 | 5.2 | 0.00 | 0.00 | 0.00 | 50 | 1005.7 |
| 20260505085108 | 46 | 230 | 1.7 | 3.5 | 0.00 | 0.00 | 0.00 | 50 | 1005.7 |
| 20260505085018 | 46 | 230 | 1.7 | 3.5 | 0.00 | 0.00 | 0.00 | 50 | 1005.7 |
| 20260505084518 | 47 | 229 | 0.9 | 5.2 | 0.00 | 0.00 | 0.00 | 50 | 1005.8 |
| 20260505084018 | 47 | 229 | 0.0 | 1.7 | 0.00 | 0.00 | 0.00 | 50 | 1005.7 |
| 20260505083518 | 47 | 229 | 0.0 | 3.5 | 0.00 | 0.00 | 0.00 | 50 | 1005.8 |
| 20260505083018 | 47 | 229 | 0.9 | 2.6 | 0.00 | 0.00 | 0.00 | 49 | 1005.9 |
| 20260505082017 | 47 | 229 | 0.9 | 5.2 | 0.00 | 0.00 | 0.00 | 49 | 1006.0 |
| 20260505081516 | 47 | 235 | 0.9 | 3.5 | 0.00 | 0.00 | 0.00 | 49 | 1006.1 |
| 20260505080516 | 47 | 236 | 0.9 | 2.6 | 0.00 | 0.00 | 0.00 | 47 | 1006.3 |
| 20260505080017 | 48 | 236 | 1.7 | 4.3 | 0.00 | 0.00 | 0.00 | 46 | 1006.4 |
| 20260505075515 | 48 | 236 | 1.7 | 4.3 | 0.00 | 0.00 | 0.00 | 46 | 1006.5 |
| 20260505074515 | 48 | 246 | 2.6 | 7.8 | 0.00 | 0.00 | 0.00 | 45 | 1006.6 |
| 20260505074425 | 50 | 247 | 3.5 | 9.6 | 0.00 | 0.00 | 0.00 | 39 | 1007.0 |
| 20260505074403 | 50 | 231 | 3.5 | 8.7 | 0.00 | 0.00 | 0.00 | 38 | 1007.0 |
| 20260505074015 | 48 | 252 | 1.7 | 7.0 | 0.00 | 0.00 | 0.00 | 45 | 1006.6 |
| 20260505073514 | 48 | 201 | 1.7 | 4.3 | 0.00 | 0.00 | 0.00 | 45 | 1006.7 |
| 20260505073014 | 48 | 200 | 1.7 | 5.2 | 0.00 | 0.00 | 0.00 | 45 | 1006.8 |
| 20260505072514 | 48 | 229 | 2.6 | 6.1 | 0.00 | 0.00 | 0.00 | 45 | 1007.0 |
| 20260505071513 | 49 | 250 | 2.6 | 6.1 | 0.00 | 0.00 | 0.00 | 44 | 1006.8 |
| 20260505070512 | 49 | 200 | 3.5 | 8.7 | 0.00 | 0.00 | 0.00 | 43 | 1006.7 |
| 20260505064011 | 49 | 250 | 3.5 | 7.0 | 0.00 | 0.00 | 0.00 | 41 | 1006.8 |
| 20260505063511 | 49 | 225 | 3.5 | 8.7 | 0.00 | 0.00 | 0.00 | 40 | 1007.0 |
| 20260505062510 | 50 | 259 | 3.5 | 10.4 | 0.00 | 0.00 | 0.00 | 40 | 1007.1 |
| 20260505061510 | 50 | 247 | 3.5 | 9.6 | 0.00 | 0.00 | 0.00 | 39 | 1007.0 |
| 20260505061009 | 50 | 242 | 3.5 | 8.7 | 0.00 | 0.00 | 0.00 | 38 | 1007.0 |
| 20260505060509 | 50 | 231 | 3.5 | 8.7 | 0.00 | 0.00 | 0.00 | 38 | 1007.0 |
| 20260505060009 | 50 | 265 | 3.5 | 7.8 | 0.00 | 0.00 | 0.00 | 37 | 1007.1 |
| 20260505055509 | 50 | 245 | 4.3 | 10.4 | 0.00 | 0.00 | 0.00 | 37 | 1006.8 |
| 20260505054508 | 51 | 236 | 5.2 | 12.2 | 0.00 | 0.00 | 0.00 | 35 | 1006.8 |
| 20260505053007 | 51 | 270 | 3.5 | 12.2 | 0.00 | 0.00 | 0.00 | 33 | 1006.9 |
| 20260505052554 | 51 | 248 | 2.6 | 7.0 | 0.00 | 0.00 | 0.00 | 33 | 1007.1 |
| 20260505052507 | 51 | 248 | 2.6 | 7.0 | 0.00 | 0.00 | 0.00 | 33 | 1007.1 |
| 20260505051506 | 51 | 232 | 3.5 | 8.7 | 0.00 | 0.00 | 0.00 | 32 | 1007.1 |
| 20260505041702 | 52 | 238 | 6.1 | 13.0 | 0.00 | 0.00 | 0.00 | 30 | 1007.0 |
| 20260505041503 | 52 | 238 | 6.1 | 13.0 | 0.00 | 0.00 | 0.00 | 30 | 1007.0 |
| 20260505041003 | 52 | 238 | 6.1 | 13.9 | 0.00 | 0.00 | 0.00 | 29 | 1006.8 |
| 20260505040502 | 53 | 236 | 5.2 | 9.6 | 0.00 | 0.00 | 0.00 | 28 | 1006.8 |
| 20260505040002 | 53 | 246 | 6.1 | 14.8 | 0.00 | 0.00 | 0.00 | 28 | 1006.7 |
| 20260505035502 | 53 | 254 | 5.2 | 11.3 | 0.00 | 0.00 | 0.00 | 27 | 1006.8 |
| 20260505034501 | 53 | 218 | 4.3 | 11.3 | 0.00 | 0.00 | 0.00 | 26 | 1006.8 |
| 20260505033000 | 53 | 231 | 4.3 | 13.9 | 0.00 | 0.00 | 0.00 | 23 | 1006.6 |
| 20260505032500 | 53 | 244 | 3.5 | 8.7 | 0.00 | 0.00 | 0.00 | 22 | 1006.6 |
| 20260505031459 | 54 | 222 | 4.3 | 10.4 | 0.00 | 0.00 | 0.00 | 20 | 1006.5 |
| 20260505030459 | 54 | 228 | 2.6 | 7.8 | 0.00 | 0.00 | 0.00 | 20 | 1006.5 |
| 20260505025458 | 55 | 248 | 1.7 | 7.0 | 0.00 | 0.00 | 0.00 | 20 | 1006.5 |
| 20260505024458 | 55 | 186 | 3.5 | 9.6 | 0.00 | 0.00 | 0.00 | 21 | 1006.0 |
| 20260505023457 | 55 | 237 | 0.9 | 5.2 | 0.00 | 0.00 | 0.00 | 22 | 1005.9 |
| 20260505022456 | 56 | 242 | 3.5 | 8.7 | 0.00 | 0.00 | 0.00 | 21 | 1005.6 |
| 20260505020610 | 57 | 240 | 3.5 | 7.8 | 0.00 | 0.00 | 0.00 | 18 | 1005.7 |
| 20260505020557 | 58 | 232 | 3.5 | 10.4 | 0.00 | 0.00 | 0.00 | 18 | 1005.5 |
| 20260505020455 | 57 | 263 | 2.6 | 7.8 | 0.00 | 0.00 | 0.00 | 18 | 1005.4 |
| 20260505015455 | 57 | 219 | 3.5 | 10.4 | 0.00 | 0.00 | 0.00 | 18 | 1005.6 |
| 20260505014955 | 57 | 240 | 3.5 | 7.8 | 0.00 | 0.00 | 0.00 | 18 | 1005.7 |
| 20260505014454 | 58 | 232 | 3.5 | 10.4 | 0.00 | 0.00 | 0.00 | 18 | 1005.5 |
| 20260505014114 | 63 | 229 | 6.1 | 8.7 | 0.00 | 0.00 | 0.00 | 27 | 1005.2 |
| 20260505013954 | 58 | 236 | 4.3 | 9.6 | 0.00 | 0.00 | 0.00 | 19 | 1005.4 |
| 20260505012453 | 59 | 223 | 3.5 | 10.4 | 0.00 | 0.00 | 0.00 | 20 | 1005.1 |
| 20260505011953 | 59 | 242 | 3.5 | 13.0 | 0.00 | 0.00 | 0.00 | 21 | 1005.0 |
| 20260505011452 | 59 | 250 | 3.5 | 7.0 | 0.00 | 0.00 | 0.00 | 22 | 1005.0 |
| 20260505010952 | 59 | 258 | 4.3 | 10.4 | 0.00 | 0.00 | 0.00 | 23 | 1004.9 |
| 20260505005952 | 60 | 193 | 3.5 | 6.1 | 0.00 | 0.00 | 0.00 | 24 | 1005.0 |
| 20260505005451 | 60 | 214 | 4.3 | 9.6 | 0.00 | 0.00 | 0.00 | 24 | 1005.0 |
| 20260505004951 | 60 | 247 | 5.2 | 12.2 | 0.00 | 0.00 | 0.00 | 23 | 1005.1 |
| 20260505004451 | 60 | 229 | 4.3 | 13.0 | 0.00 | 0.00 | 0.00 | 23 | 1005.1 |
| 20260505003951 | 60 | 236 | 3.5 | 13.0 | 0.00 | 0.00 | 0.00 | 24 | 1005.2 |
| 20260505003450 | 60 | 243 | 3.5 | 8.7 | 0.00 | 0.00 | 0.00 | 24 | 1005.2 |
| 20260505002950 | 60 | 231 | 3.5 | 8.7 | 0.00 | 0.00 | 0.00 | 25 | 1005.1 |
| 20260505002450 | 61 | 283 | 3.5 | 8.7 | 0.00 | 0.00 | 0.00 | 24 | 1005.1 |
| 20260505001950 | 61 | 284 | 5.2 | 14.8 | 0.00 | 0.00 | 0.00 | 24 | 1005.0 |
| 20260505001449 | 61 | 239 | 5.2 | 13.0 | 0.00 | 0.00 | 0.00 | 23 | 1005.2 |
| 20260505000949 | 61 | 268 | 3.5 | 8.7 | 0.00 | 0.00 | 0.00 | 23 | 1005.3 |
| 20260505000449 | 62 | 221 | 3.5 | 10.4 | 0.00 | 0.00 | 0.00 | 23 | 1005.1 |
| 20260504234947 | 62 | 250 | 5.2 | 14.8 | 0.00 | 0.00 | 0.00 | 22 | 1005.0 |
| 20260504234447 | 62 | 288 | 6.1 | 13.0 | 0.00 | 0.00 | 0.00 | 22 | 1005.0 |
| 20260504232946 | 63 | 210 | 6.1 | 16.5 | 0.00 | 0.00 | 0.00 | 20 | 1004.8 |
| 20260504232446 | 63 | 255 | 4.3 | 12.2 | 0.00 | 0.00 | 0.00 | 20 | 1005.0 |
| 20260504231946 | 63 | 218 | 6.1 | 11.3 | 0.00 | 0.00 | 0.00 | 19 | 1004.7 |
| 20260504231445 | 63 | 227 | 4.3 | 11.3 | 0.00 | 0.00 | 0.00 | 22 | 1004.6 |
| 20260504230945 | 63 | 269 | 6.1 | 9.6 | 0.00 | 0.00 | 0.00 | 26 | 1004.8 |
| 20260504230445 | 63 | 275 | 6.1 | 16.5 | 0.00 | 0.00 | 0.00 | 27 | 1004.8 |
| 20260504224444 | 63 | 238 | 4.3 | 10.4 | 0.00 | 0.00 | 0.00 | 27 | 1005.3 |
| 20260504223944 | 63 | 244 | 4.3 | 10.4 | 0.00 | 0.00 | 0.00 | 27 | 1005.3 |
| 20260504223443 | 63 | 225 | 6.1 | 11.3 | 0.00 | 0.00 | 0.00 | 27 | 1005.5 |
| 20260504222943 | 63 | 229 | 5.2 | 13.9 | 0.00 | 0.00 | 0.00 | 26 | 1005.1 |
| 20260504221943 | 63 | 229 | 6.1 | 8.7 | 0.00 | 0.00 | 0.00 | 27 | 1005.2 |
| 20260504221442 | 63 | 252 | 7.0 | 14.8 | 0.00 | 0.00 | 0.00 | 27 | 1005.3 |
| 20260504220931 | 44 | 144 | 0.0 | 1.7 | 0.00 | 0.00 | 0.00 | 55 | 1007.7 |
| 20260504215942 | 65 | 281 | 5.2 | 13.0 | 0.00 | 0.00 | 0.00 | 26 | 1005.8 |
| 20260504215441 | 64 | 294 | 5.2 | 15.6 | 0.00 | 0.00 | 0.00 | 26 | 1005.8 |
| 20260504214441 | 64 | 218 | 5.2 | 13.9 | 0.00 | 0.00 | 0.00 | 26 | 1005.9 |
| 20260504213941 | 64 | 219 | 5.2 | 13.9 | 0.00 | 0.00 | 0.00 | 26 | 1006.0 |
| 20260504212939 | 65 | 281 | 4.3 | 9.6 | 0.00 | 0.00 | 0.00 | 28 | 1005.9 |
| 20260504211939 | 64 | 299 | 4.3 | 13.0 | 0.00 | 0.00 | 0.00 | 29 | 1006.1 |
| 20260504210438 | 63 | 163 | 5.2 | 9.6 | 0.00 | 0.00 | 0.00 | 25 | 1006.1 |
| 20260504210015 | 64 | 216 | 7.0 | 11.3 | 0.00 | 0.00 | 0.00 | 26 | 1005.9 |
| 20260504205938 | 64 | 216 | 7.0 | 11.3 | 0.00 | 0.00 | 0.00 | 26 | 1005.9 |
| 20260504204937 | 64 | 283 | 3.5 | 13.9 | 0.00 | 0.00 | 0.00 | 26 | 1006.1 |
| 20260504204437 | 64 | 190 | 3.5 | 7.8 | 0.00 | 0.00 | 0.00 | 31 | 1005.7 |
| 20260504203436 | 64 | 217 | 2.6 | 2.6 | 0.00 | 0.00 | 0.00 | 29 | 1006.2 |
| 20260504201936 | 64 | 261 | 4.3 | 13.9 | 0.00 | 0.00 | 0.00 | 32 | 1006.1 |
| 20260504200935 | 64 | 150 | 7.0 | 14.8 | 0.00 | 0.00 | 0.00 | 29 | 1006.4 |
| 20260504200434 | 64 | 279 | 7.0 | 14.8 | 0.00 | 0.00 | 0.00 | 29 | 1006.3 |
| 20260504195935 | 64 | 289 | 6.1 | 14.8 | 0.00 | 0.00 | 0.00 | 29 | 1006.4 |
| 20260504194934 | 62 | 234 | 3.5 | 7.0 | 0.00 | 0.00 | 0.00 | 29 | 1006.1 |
| 20260504193933 | 63 | 225 | 5.2 | 13.0 | 0.00 | 0.00 | 0.00 | 30 | 1006.6 |
| 20260504193433 | 64 | 231 | 6.1 | 8.7 | 0.00 | 0.00 | 0.00 | 30 | 1006.6 |
| 20260504192932 | 63 | 283 | 4.3 | 10.4 | 0.00 | 0.00 | 0.00 | 30 | 1006.5 |
| 20260504192432 | 63 | 307 | 2.6 | 8.7 | 0.00 | 0.00 | 0.00 | 28 | 1006.3 |
| 20260504191932 | 63 | 253 | 3.5 | 7.8 | 0.00 | 0.00 | 0.00 | 28 | 1006.2 |
| 20260504191432 | 62 | 275 | 5.2 | 10.4 | 0.00 | 0.00 | 0.00 | 31 | 1006.7 |
| 20260504185931 | 62 | 315 | 3.5 | 11.3 | 0.00 | 0.00 | 0.00 | 32 | 1006.9 |
| 20260504184430 | 60 | 277 | 4.3 | 9.6 | 0.00 | 0.00 | 0.00 | 32 | 1007.0 |
| 20260504183430 | 60 | 230 | 4.3 | 13.0 | 0.00 | 0.00 | 0.00 | 32 | 1007.0 |
| 20260504182929 | 60 | 265 | 5.2 | 11.3 | 0.00 | 0.00 | 0.00 | 35 | 1007.2 |
| 20260504182429 | 60 | 243 | 5.2 | 8.7 | 0.00 | 0.00 | 0.00 | 32 | 1007.1 |
| 20260504181428 | 60 | 275 | 5.2 | 13.0 | 0.00 | 0.00 | 0.00 | 36 | 1007.0 |
| 20260504175928 | 59 | 273 | 5.2 | 10.4 | 0.00 | 0.00 | 0.00 | 37 | 1007.7 |
| 20260504175427 | 58 | 250 | 4.3 | 10.4 | 0.00 | 0.00 | 0.00 | 37 | 1007.5 |
| 20260504174427 | 58 | 228 | 5.2 | 10.4 | 0.00 | 0.00 | 0.00 | 38 | 1007.5 |
| 20260504173927 | 58 | 241 | 4.3 | 12.2 | 0.00 | 0.00 | 0.00 | 38 | 1007.4 |
| 20260504173426 | 58 | 286 | 4.3 | 9.6 | 0.00 | 0.00 | 0.00 | 39 | 1007.5 |
| 20260504172926 | 58 | 277 | 4.3 | 8.7 | 0.00 | 0.00 | 0.00 | 40 | 1007.4 |
| 20260504172425 | 57 | 281 | 5.2 | 11.3 | 0.00 | 0.00 | 0.00 | 40 | 1007.7 |
| 20260504171926 | 57 | 290 | 4.3 | 13.0 | 0.00 | 0.00 | 0.00 | 39 | 1007.8 |
| 20260504171425 | 57 | 305 | 4.3 | 7.8 | 0.00 | 0.00 | 0.00 | 40 | 1007.8 |
| 20260504170925 | 56 | 271 | 6.1 | 10.4 | 0.00 | 0.00 | 0.00 | 40 | 1007.8 |
| 20260504170424 | 56 | 275 | 5.2 | 13.9 | 0.00 | 0.00 | 0.00 | 40 | 1007.7 |
| 20260504150417 | 51 | 150 | 0.9 | 4.3 | 0.00 | 0.00 | 0.00 | 48 | 1007.9 |
| 20260504140914 | 47 | 144 | 0.9 | 2.6 | 0.00 | 0.00 | 0.00 | 60 | 1008.0 |
| 20260504140414 | 46 | 144 | 0.9 | 2.6 | 0.00 | 0.00 | 0.00 | 58 | 1007.9 |